Location: Babice
(50.3480°N, 22.9363°E)
Time: 12:50:57
(UTC+00:00)

Cosmos 1833 Rocket - Pass Details

Date: 14 July 2020
Orbit: 832 x 840 km, 71.0° (Epoch: 07 August)

Event Time Altitude Azimuth Distance (km) Brightness Sun altitude
Exits shadow 00:45:03 17° 201° (SSW) 2,001 4.0 -12.4°
Maximum altitude 00:49:28 80° 117° (ESE) 853 2.7 -12.1°
Drops below altitude 10° 00:55:06 10° 31° (NNE) 2,456 6.7 -11.6°
Sets 00:57:33 0° 31° (NNE) 3,395 8.1 -11.4°
